Preview of NWS' New Version of Forecast
This preview is not operational and should not be used for support decisions.

Regional Weather Roundup (RWR)

Issued by National Weather Service (NWS)

                            
000
ASUS45 KBOI 170010
RWRID 

IDAHO REGIONAL WEATHER ROUNDUP
NATIONAL WEATHER SERVICE BOISE ID
600 PM MDT MON SEP 16 2019

NOTE: "FAIR" INDICATES FEW OR NO CLOUDS BELOW 12000 FEET
WITH NO SIGNIFICANT WEATHER AND/OR OBSTRUCTIONS TO VISIBILITY

IDZ012-014-170100-
SOUTHWEST IDAHO

  
CITY           SKY/WX    TMP DP  RH WIND       PRES   REMARKS
BOISE          PTSUNNY   70  39  32 NW28G41   29.76R                  
CALDWELL       PTSUNNY   68  40  35 W24G32    29.79R                  
MOUNTAIN HOME  CLOUDY    73  37  27 NW29G38   29.68S                  
$$

IDZ016-017-170100-
SOUTHCENTRAL IDAHO

  
CITY           SKY/WX    TMP DP  RH WIND       PRES   REMARKS
BURLEY         CLOUDY    75  36  24 W6        29.66F                  
JEROME         CLOUDY    74  44  34 N7        29.68F                  
TWIN FALLS     CLOUDY    74  32  21 NW5       29.68F                  
$$

IDZ019>023-170100-
SOUTHEAST IDAHO

  
CITY           SKY/WX    TMP DP  RH WIND       PRES   REMARKS
IDAHO FALLS    LGT RAIN  78  40  25 S18G25    29.74R                  
POCATELLO      CLOUDY    83  27  13 S22G37    29.70F                  
REXBURG        PTSUNNY   69  48  47 E6        29.75F                  
$$

IDZ006-010-011-018-031-032-170100-
CENTRAL IDAHO MOUNTAINS

  
CITY           SKY/WX    TMP DP  RH WIND       PRES   REMARKS
MCCALL         PTSUNNY   64  25  22 W8        29.79F                  
HAILEY         MOSUNNY   72  39  30 S6        29.77F                  
STANLEY          N/A     66  19  16 VRB3      29.82F                  
SALMON         CLOUDY    76  35  22 S9        29.62S                  
CHALLIS        NOT AVBL                                               
$$

IDZ002-004-006-007-026-170100-
NORTHERN IDAHO

  
CITY           SKY/WX    TMP DP  RH WIND       PRES   REMARKS
LEWISTON       CLOUDY    63  46  54 W15       29.81R                  
LOWELL           N/A     68  52  56 CALM      29.73R                  
COEUR D'ALENE  CLOUDY    60  47  61 W13       29.81R                  
MULLAN PASS    MOSUNNY   50  42  74 VRB3      29.85R                  
$$